Lapse_Rate
6.4 6.2 6.1 6.0 6.1 6.1 6.3 6.5 6.5 6.4 6.3 6.1 6.1 6.1 6.1 6.1 5.8 5.6 5.5 5.3 5.1 5.1
6.3 6.1 5.9 5.9 5.9 6.1 6.2 6.4 6.5 6.4 6.2 6.0 5.9 5.8 5.6 5.5 5.6 5.5 5.5 5.6 5.5 5.4
6.2 6.0 5.8 5.9 5.9 6.0 6.2 6.1 6.1 6.1 6.0 5.9 5.8 5.7 5.3 5.3 5.4 5.2 5.3 5.5 5.7 5.6
6.1 5.9 5.8 5.7 5.9 6.1 6.0 6.0 6.1 6.0 5.9 5.9 6.0 6.1 6.2 5.9 5.8 5.8 5.7 5.8 5.9 6.1
6.0 5.9 5.7 5.7 5.9 5.9 5.8 5.9 5.9 6.0 6.1 6.3 6.6 6.9 6.6 6.5 5.9 5.8 6.1 6.4 6.6 6.6
6.0 5.8 5.6 5.8 5.8 5.7 5.6 5.7 5.7 5.7 6.1 6.5 6.6 6.2 6.0 6.0 5.6 5.1 5.4 6.0 6.6 6.8
5.9 5.7 5.7 5.8 5.6 5.5 5.6 5.6 5.7 5.9 6.4 5.9 5.7 5.7 5.6 5.5 5.4 5.3 5.7 6.1 6.4 6.3
5.8 5.8 5.7 5.5 5.3 5.4 5.6 5.9 6.0 6.4 6.6 6.2 5.8 5.6 5.9 6.1 6.1 5.9 6.0 6.4 6.5 6.4
5.8 5.7 5.5 5.1 5.3 5.5 5.8 5.7 6.2 6.4 6.3 6.2 5.8 6.0 6.1 6.2 6.2 6.5 6.4 6.5 6.9 6.7
5.8 5.4 5.0 5.2 5.5 5.9 5.8 5.9 6.2 6.1 6.2 6.0 5.8 6.5 7.1 6.5 6.3 6.5 6.7 6.8 6.6 6.5
5.5 5.2 4.9 5.2 5.7 5.4 5.5 5.7 5.8 5.7 5.8 5.8 6.0 6.3 6.8 6.5 6.5 6.4 6.7 6.7 6.6 6.5
5.4 4.8 4.8 5.2 5.4 5.1 5.1 5.1 4.9 5.3 5.6 5.5 5.9 6.2 6.3 6.4 6.4 6.5 6.2 6.3 6.4 6.4
4.9 4.4 4.7 5.3 5.3 5.1 4.8 4.6 4.9 5.3 5.3 5.3 6.0 6.3 6.1 6.1 6.2 6.0 6.0 6.3 6.6 6.3
4.5 4.4 4.6 5.1 4.7 4.9 4.7 4.9 4.6 4.9 4.8 5.4 5.8 5.9 6.1 6.3 6.3 6.3 6.4 6.2 5.9 5.9
Wind_Speed
7 5 5 6 6 6 6 8 10 9 9 10 10 8 7 7 8 9 8 9 8 8
7 6 8 8 7 6 7 7 11 12 10 11 12 11 9 6 8 9 10 10 9 7
7 7 7 8 9 10 10 10 11 12 11 12 12 11 10 9 10 10 8 8 10 9
7 8 7 7 8 9 10 10 11 11 12 11 13 13 10 11 12 12 12 12 11 11
8 7 7 8 9 9 10 10 10 11 10 11 11 10 11 11 10 11 13 13 12 12
7 7 8 8 9 9 10 10 11 11 10 10 10 9 10 10 10 10 10 10 11 10
7 8 8 8 8 9 9 10 10 11 10 10 10 9 9 9 9 8 8 9 8 8
7 7 7 7 8 8 8 8 9 9 9 8 7 7 10 7 5 6 6 5 5 6
6 6 6 6 7 7 8 8 8 8 8 8 6 14 13 5 5 5 5 5 5 6
6 6 6 6 7 8 8 8 8 8 8 8 9 16 14 12 7 8 7 7 6 7
5 5 5 5 7 7 6 7 7 7 8 7 8 14 14 15 8 8 10 9 8 8
4 4 5 6 6 5 5 5 6 7 7 7 7 13 14 11 8 10 9 8 8 8
3 3 4 4 4 3 3 4 5 7 7 10 7 12 13 9 5 8 7 9 10 15
3 2 3 2 2 3 3 3 5 6 7 8 9 9 13 13 6 5 7 6 7 7
Wind_Direction
333 326 310 305 305 300 302 304 306 305 304 295 291 286 268 254 249 238 241 247 249 264
321 324 315 312 301 294 300 304 309 311 305 303 298 287 276 260 256 248 242 237 231 243
312 318 323 319 319 323 318 314 309 305 299 296 293 287 276 261 256 253 250 245 238 229
325 327 330 329 323 319 317 316 308 303 298 291 289 278 270 264 257 248 250 243 244 244
330 334 336 327 322 322 326 317 309 302 295 289 282 273 266 252 243 236 241 241 235 240
335 333 329 326 325 331 322 320 318 312 297 292 285 272 265 251 247 236 235 240 234 233
333 329 327 323 328 330 330 325 322 314 307 304 307 294 281 267 243 237 237 238 235 237
326 323 325 327 333 329 333 330 326 331 332 337 328 326 316 276 229 239 240 225 243 232
328 329 334 336 339 347 349 344 341 350 341 346 348 360 10 36 56 49 58 53 44 40
336 331 342 345 1 5 352 348 353 353 350 2 7 22 34 52 63 72 53 51 50 54
334 335 347 1 13 358 352 352 357 349 0 9 16 30 49 57 57 64 55 50 53 62
331 336 357 18 7 351 359 356 359 351 1 15 31 46 59 62 64 68 62 62 64 69
316 352 1 12 9 337 353 0 3 1 2 23 30 55 67 71 82 81 75 65 65 70
308 349 2 2 16 1 9 24 20 6 8 18 35 55 70 67 61 71 78 67 62 68